Weather Roundup
Issued by NWS Chicago, IL

Home | Current Version | Previous Version | Graphics & Text | Print | Product List | Glossary On
Versions: 1 2 3 4 5 6 7 8 9 10 11 12 13 14 15 16 17 18 19 20 21 22 23 24 25 26 27 28 29 30 31 32 33 34 35 36 37 38 39 40 41 42 43 44 45 46 47 48 49 50
000
NZUS59 KLOT 061012
HRRLOT

CHICAGO AREA WEATHER ROUNDUP
NATIONAL WEATHER SERVICE CHICAGO/ROMEOVILLE IL
400 AM CST TUE DEC 06 2016

NOTE: "FAIR" INDICATES FEW OR NO CLOUDS BELOW 12,000 FEET WITH NO
SIGNIFICANT WEATHER AND/OR OBSTRUCTIONS TO VISIBILITY.

* THESE STATIONS ARE NOT UNDER NWS QUALITY CONTROL. THEY ALSO MAY NOT
  REPORT WEATHER SUCH AS PRECIPITATION OR FOG.

ILZ005-006-012>014-019>023-061100-
NORTHEAST ILLINOIS

CITY           SKY/WX    TMP DP  RH WIND       PRES   REMARKS
OHARE          PTCLDY    30  29  96 E3        29.82F FOG
MIDWAY         PTCLDY    32  28  85 E3        29.83F FOG
AURORA         FOG       26  25  96 CALM      29.82F VSB 1/4
LANSING*       CLOUDY    30  30 100 E6        29.83F FOG     WCI  24
JOLIET*        CLOUDY    30  30  99 CALM      29.83F FOG
WAUKEGAN       CLOUDY    37  34  89 SE3       29.84F
DUPAGE AIRPORT CLOUDY    27  25  92 N6        29.81F FOG     WCI  20
WHEELING       FOG       29  28  96 N3        29.85F VSB 3/4
KANKAKEE*      PTCLDY    30  29  94 CALM      29.83R FOG
MORRIS*        CLOUDY    27  26  96 E5        29.82F FOG     WCI  22
LEWIS AIRPORT* CLOUDY    29  29 100 CALM      29.82F FOG
NORTHERLY ISL    N/A     37  33  85 SE10        N/A
$$

WIZ051-052-058>065-066-070>072-061100-
SOUTHEAST WISCONSIN

CITY           SKY/WX    TMP DP  RH WIND       PRES   REMARKS
MILWAUKEE      CLOUDY    36  34  92 CALM      29.85F FOG
KENOSHA*       CLOUDY    37  33  85 E3        29.84F
RACINE*        CLOUDY    39  34  82 S8        29.87F
BURLINGTON     CLOUDY    33  32  97 CALM      29.83F FOG
WAUKESHA       CLOUDY    32  32 100 CALM      29.85F FOG
WEST BEND      CLOUDY    32  32 100 CALM      29.85S
$$

INZ001>003-010>013-019-020-061100-
NORTHWEST INDIANA

CITY           SKY/WX    TMP DP  RH WIND       PRES   REMARKS
GARY*          NOT AVBL
MICHIGAN CITY* NOT AVBL
RENSSELAER*    NOT AVBL
VALPARAISO     CLOUDY    30  27  88 NE8       29.83F WCI  22
$$

LMZ740>746-061100-
SOUTHERN LAKE MICHIGAN

STATION/POSITION TIME  SKY/WX   TEMP WIND        PRES    VSBY
                                AIR  DIR/SP/G
                 (UTC)          (F)  (DEG/KT/KT) (MB)    (MI)
HARRISON CRIB    0940            39  130/ 14/ 16   N/A
BURNHAM HARBOR   1000            36  120/ 10/ 11   N/A
CALUMET HARBOR   0948            36  100/  9/ 13 1009.5F
BURNS HARBOR     0940            33   90/  7/ 10 1011.2F
MICHIGAN CITY    NOT AVBL
$$

ABBREVIATIONS USED IN REMARKS
   TC - TEMPERATURE IN CELSIUS
  WCI - WIND CHILL INDEX
   HX - HEAT INDEX
  VSB - VISIBILITY
$$



USA.gov is the U.S. government's official web portal to all federal, state and local government web resources and services.